Terminal Aerodrome Forecast
Issued by NWS

Home | Current Version | Previous Version | Text Only | Print | Product List | Glossary On
Versions: 1 2 3 4 5 6 7 8 9 10 11 12 13
000
FTUS45 KTFX 231700
TAFCTB
TAF
KCTB 231740Z 2318/2418 13008KT P6SM SKC
     FM232200 17011KT P6SM VCTS SCT090CB BKN150
      TEMPO 2401/2404 VRB30G40KT 6SM TSRA BKN070CB
     FM240600 25015G25KT P6SM SKC
     FM241000 26028G42KT P6SM SKC=

USA.gov is the U.S. government's official web portal to all federal, state and local government web resources and services.